Regional Weather Roundup
Issued by NWS

Home | Current Version | Previous Version | Graphics & Text | Print | Product List | Glossary On
Versions: 1 2 3 4 5 6 7 8 9 10 11 12 13 14 15 16 17 18 19 20 21 22 23 24 25 26 27 28 29 30 31 32 33 34 35 36 37 38 39 40 41 42 43 44 45 46 47 48 49 50
000
ASUS45 KABQ 261510
RWRNM
NEW MEXICO REGIONAL WEATHER ROUNDUP
NATIONAL WEATHER SERVICE ALBUQUERQUE NM
900 AM MDT FRI AUG 26 2016

NOTE: "FAIR" MEANS FEW OR NO CLOUDS BELOW 12,000 FEET AGL WITH NO
       SIGNIFICANT WEATHER OR OBSTRUCTIONS TO VISION.

      THIS PRODUCT IS RELEASED AS TWO VERSIONS.  ONE VERSION NEAR
      THE TOP OF THE HOUR CONTAINING PRELIMINARY DATA FROM ALBUQUERQUE
      AND OTHER STATIONS.  A FINAL VERSION WITH ADDITIONAL DATA IS
      ISSUED ABOUT 10 MINUTES AFTER THE HOUR.

NMZ501-503-504-510>518-261600-
NORTHWEST PLATEAU/NORTHCENTRAL MOUNTAINS

CITY           SKY/WX    TMP DP  RH WIND       PRES   REMARKS
FARMINGTON     FAIR      61  49  64 CALM      30.25R
LOS ALAMOS     FAIR      58  50  74 S7        30.33S
SANTA FE       FAIR      60  53  77 VRB3      30.28S
TAOS           CLOUDY    54  45  71 CALM      30.33R
ANGEL FIRE     PTSUNNY   49  45  85 CALM      30.38F

$$
NMZ402-403-502-505>509-261600-
WESTCENTRAL MOUNTAINS/SOUTHWEST MOUNTAINS

CITY           SKY/WX    TMP DP  RH WIND       PRES   REMARKS
GALLUP         FAIR      58  50  75 SW12      30.31F
GRANTS         PTSUNNY   59  49  68 SE5       30.32S
SILVER CITY    FAIR      67  54  62 SE7       30.23R

$$
NMZ407-409-411-412-261600-
SOUTHERN DESERTS

CITY           SKY/WX    TMP DP  RH WIND       PRES   REMARKS
DEMING         FAIR      70  56  61 E9        30.17R
LAS CRUCES     FAIR      73  55  53 SE9       30.18R
HOLLOMAN AFB   SUNNY     70  52  52 VRB3      30.16R
ALAMOGORDO     FAIR      70  50  49 N5        30.18S
T OR C         FAIR      71  54  54 NE6       30.19R

$$
NMZ519>523-261600-
CENTRAL VALLEYS/CENTRAL HIGHLANDS

CITY           SKY/WX    TMP DP  RH WIND       PRES   REMARKS
ALBUQUERQUE    FAIR      64  55  72 NW6       30.23S
DOUBLE EAGLE   PTSUNNY   63  52  67 NE5       30.27R
MORIARTY ARPT  FAIR      60  51  71 S5        30.31R
CLINES CORNERS CLOUDY    54  50  86 E10       30.33S
BELEN          FAIR      64  51  62 CALM      30.23S
SOCORRO        PTSUNNY   71  48  45 N10       30.21S

$$
NMZ524>526-539-540-261600-
SOUTHCENTRAL MOUNTAINS

CITY           SKY/WX    TMP DP  RH WIND       PRES   REMARKS
RUIDOSO          N/A     59  50  72 CALM      30.33F

$$
NMZ527>531-261600-
NORTHEAST HIGHLANDS/NORTHEAST PLAINS

CITY           SKY/WX    TMP DP  RH WIND       PRES   REMARKS
LAS VEGAS      CLOUDY    53  49  86 CALM      30.33S
RATON          FAIR      56  50  80 SW13      30.28S
CLAYTON        FAIR      68  53  58 W14       30.17F

$$
NMZ532>537-261600-
EASTCENTRAL PLAINS

CITY           SKY/WX    TMP DP  RH WIND       PRES   REMARKS
TUCUMCARI      FAIR      69  56  62 SE6       30.19F
CANNON AFB     FAIR      64  64 100 E3        30.24R
CLOVIS AIRPORT CLOUDY    63  57  82 SW3       30.24R

$$
NMZ028-029-538-261600-
SOUTHEAST PLAINS

CITY           SKY/WX    TMP DP  RH WIND       PRES   REMARKS
ROSWELL        CLOUDY    65  60  84 N10       30.19R
ARTESIA        PTSUNNY   68  68 100 VRB5      30.18S
CARLSBAD       FAIR      67  63  87 NW3       30.14F
HOBBS          MOSUNNY   70  70 100 E9        30.19S


$$




USA.gov is the U.S. government's official web portal to all federal, state and local government web resources and services.